TimeCDT,TemperatureF,Dew PointF,Humidity,Sea Level PressureIn,VisibilityMPH,Wind Direction,Wind SpeedMPH,Gust SpeedMPH,PrecipitationIn,Events,Conditions,WindDirDegrees,DateUTC
12:15 AM,59.2,52.0,77,29.47,10.0,South,6.9,-,N/A,,Clear,170,2012-10-17 05:15:00
12:35 AM,59.0,51.8,77,29.46,10.0,South,6.9,-,N/A,,Clear,170,2012-10-17 05:35:00
12:55 AM,58.3,51.8,79,29.46,10.0,South,6.9,-,N/A,,Clear,170,2012-10-17 05:55:00
1:15 AM,58.1,51.4,78,29.46,10.0,South,5.8,-,N/A,,Clear,170,2012-10-17 06:15:00
1:35 AM,57.6,51.1,79,29.46,10.0,South,8.1,-,N/A,,Clear,180,2012-10-17 06:35:00
1:55 AM,58.1,51.1,77,29.47,10.0,South,5.8,-,N/A,,Clear,190,2012-10-17 06:55:00
2:15 AM,57.9,50.7,77,29.46,10.0,South,5.8,-,N/A,,Clear,180,2012-10-17 07:15:00
2:55 AM,57.6,50.2,76,29.46,10.0,South,6.9,-,N/A,,Clear,190,2012-10-17 07:55:00
3:15 AM,56.5,49.6,78,29.45,10.0,South,5.8,-,N/A,,Clear,180,2012-10-17 08:15:00
3:35 AM,55.8,49.5,79,29.44,10.0,South,4.6,-,N/A,,Clear,170,2012-10-17 08:35:00
3:55 AM,55.4,49.1,79,29.44,10.0,South,5.8,-,N/A,,Clear,170,2012-10-17 08:55:00
4:15 AM,54.5,48.7,81,29.45,10.0,South,5.8,-,N/A,,Clear,170,2012-10-17 09:15:00
4:35 AM,54.5,48.6,80,29.45,10.0,South,6.9,-,N/A,,Clear,170,2012-10-17 09:35:00
4:55 AM,54.5,48.6,80,29.46,10.0,South,6.9,-,N/A,,Clear,180,2012-10-17 09:55:00
5:35 AM,53.2,48.4,84,29.46,10.0,South,5.8,-,N/A,,Clear,180,2012-10-17 10:35:00
5:55 AM,53.1,48.2,84,29.46,10.0,South,6.9,-,N/A,,Clear,170,2012-10-17 10:55:00
6:15 AM,53.2,47.7,81,29.46,10.0,South,6.9,-,N/A,,Clear,180,2012-10-17 11:15:00
7:15 AM,52.5,46.9,81,29.45,10.0,South,5.8,-,N/A,,Clear,180,2012-10-17 12:15:00
7:35 AM,53.2,46.9,79,29.44,10.0,South,6.9,-,N/A,,Clear,170,2012-10-17 12:35:00
7:55 AM,53.6,47.3,79,29.45,10.0,South,8.1,-,N/A,,Clear,170,2012-10-17 12:55:00
8:15 AM,55.4,47.7,75,29.45,10.0,South,9.2,-,N/A,,Clear,170,2012-10-17 13:15:00
8:55 AM,56.3,48.2,74,29.45,10.0,South,9.2,-,N/A,,Clear,180,2012-10-17 13:55:00
9:15 AM,57.9,48.4,71,29.45,10.0,South,10.4,-,N/A,,Clear,180,2012-10-17 14:15:00
9:35 AM,57.6,48.2,71,29.45,10.0,South,9.2,-,N/A,,Clear,180,2012-10-17 14:35:00
9:55 AM,58.1,48.2,70,29.44,10.0,South,12.7,-,N/A,,Clear,170,2012-10-17 14:55:00
10:15 AM,59.9,48.7,67,29.44,10.0,South,12.7,18.4,N/A,,Clear,180,2012-10-17 15:15:00
10:35 AM,62.2,49.3,63,29.43,10.0,South,15.0,20.7,N/A,,Scattered Clouds,180,2012-10-17 15:35:00
11:15 AM,63.0,49.6,62,29.41,10.0,South,17.3,24.2,N/A,,Clear,180,2012-10-17 16:15:00
11:35 AM,64.8,50.4,60,29.41,10.0,South,13.8,19.6,N/A,,Scattered Clouds,170,2012-10-17 16:35:00
12:15 PM,67.5,51.1,56,29.39,10.0,South,13.8,19.6,N/A,,Clear,170,2012-10-17 17:15:00
12:35 PM,66.4,51.3,58,29.38,10.0,South,13.8,21.9,N/A,,Clear,170,2012-10-17 17:35:00
12:55 PM,66.9,51.6,58,29.39,10.0,South,15.0,20.7,N/A,,Clear,190,2012-10-17 17:55:00
1:15 PM,65.8,51.6,60,29.39,10.0,SSW,15.0,23.0,N/A,,Clear,200,2012-10-17 18:15:00
1:35 PM,65.3,51.6,61,29.39,10.0,South,15.0,21.9,N/A,,Scattered Clouds,190,2012-10-17 18:35:00
1:55 PM,64.8,51.8,63,29.39,10.0,South,12.7,20.7,N/A,,Scattered Clouds,190,2012-10-17 18:55:00
2:15 PM,64.9,52.0,63,29.39,10.0,South,9.2,17.3,N/A,,Overcast,190,2012-10-17 19:15:00
2:35 PM,64.8,52.2,64,29.38,10.0,South,11.5,16.1,N/A,,Overcast,180,2012-10-17 19:35:00
2:55 PM,64.9,52.5,64,29.37,10.0,South,11.5,-,N/A,,Scattered Clouds,190,2012-10-17 19:55:00
3:15 PM,64.9,52.7,64,29.36,10.0,South,9.2,-,N/A,,Mostly Cloudy,180,2012-10-17 20:15:00
3:35 PM,63.9,54.0,70,29.35,10.0,SSW,10.4,-,N/A,Rain,Light Rain,200,2012-10-17 20:35:00
3:55 PM,62.1,54.9,77,29.36,10.0,SW,16.1,-,N/A,,Overcast,230,2012-10-17 20:55:00
4:15 PM,60.1,54.7,82,29.36,10.0,SW,11.5,18.4,N/A,,Overcast,220,2012-10-17 21:15:00
4:35 PM,60.1,54.5,82,29.35,10.0,SSW,10.4,-,N/A,,Overcast,210,2012-10-17 21:35:00
4:55 PM,60.1,54.5,82,29.35,10.0,SSW,8.1,-,N/A,,Overcast,200,2012-10-17 21:55:00
5:15 PM,60.3,54.0,80,29.35,10.0,South,6.9,-,N/A,,Overcast,190,2012-10-17 22:15:00
5:55 PM,60.4,53.6,78,29.34,10.0,South,5.8,-,N/A,Rain,Rain,180,2012-10-17 22:55:00
6:15 PM,59.2,54.5,84,29.33,10.0,SSE,6.9,-,N/A,Rain,Rain,160,2012-10-17 23:15:00
6:35 PM,58.3,55.0,89,29.33,10.0,South,3.5,-,0.01,Rain,Light Rain,170,2012-10-17 23:35:00
6:55 PM,58.1,55.4,91,29.33,10.0,South,4.6,-,0.01,,Overcast,180,2012-10-17 23:55:00
7:15 PM,57.9,55.6,92,29.32,10.0,South,6.9,-,N/A,,Overcast,170,2012-10-18 00:15:00
7:35 PM,57.7,55.8,93,29.32,10.0,South,6.9,-,N/A,,Overcast,170,2012-10-18 00:35:00
7:55 PM,57.6,55.8,94,29.30,7.0,SSE,6.9,-,N/A,,Overcast,160,2012-10-18 00:55:00
8:15 PM,57.4,55.9,95,29.29,7.0,SSE,3.5,-,N/A,Rain,Light Rain,160,2012-10-18 01:15:00
8:35 PM,57.2,56.3,97,29.29,4.0,SSW,3.5,-,0.03,Rain,Rain,210,2012-10-18 01:35:00
8:55 PM,56.8,56.5,99,29.29,2.0,SW,3.5,-,0.18,Rain,Rain,220,2012-10-18 01:55:00
9:15 PM,56.7,56.3,99,29.28,2.5,WSW,5.8,-,0.07,Rain,Rain,250,2012-10-18 02:15:00
9:35 PM,53.8,50.7,89,29.28,7.0,WNW,15.0,31.1,0.14,Rain,Light Rain,300,2012-10-18 02:35:00
9:55 PM,52.9,51.1,94,29.28,10.0,WNW,10.4,18.4,0.15,Rain,Light Rain,290,2012-10-18 02:55:00
10:15 PM,52.9,51.3,94,29.28,7.0,WNW,10.4,18.4,0.02,Rain,Light Rain,290,2012-10-18 03:15:00
10:55 PM,52.0,50.4,94,29.26,7.0,WNW,6.9,-,0.09,Rain,Rain,290,2012-10-18 03:55:00
11:15 PM,51.8,50.9,97,29.26,10.0,WNW,5.8,-,0.02,Rain,Light Rain,290,2012-10-18 04:15:00
11:35 PM,51.4,50.9,98,29.26,10.0,WSW,5.8,-,0.03,Rain,Light Rain,250,2012-10-18 04:35:00
11:55 PM,51.8,51.1,97,29.26,10.0,WSW,5.8,-,0.03,,Overcast,240,2012-10-18 04:55:00